Location: Windsor
(43.2292°N, 89.3015°W)
Time: 21:45:15
(UTC+00:00)

DIWATA 2B (PO-101) - Pass Details

Date: 29 June 2022
Orbit: 583 x 599 km, 98.0° (Epoch: 11 August)

Event Time Altitude Azimuth Distance (km) Brightness Sun altitude
Exits shadow 07:49:11 35° 163° (SSE) 965 ? -19.0°
Maximum altitude 07:50:53 87° 79° (E) 606 ? -18.9°
Drops below altitude 10° 07:55:08 10° 348° (NNW) 1,948 ? -18.5°
Sets 07:57:19 0° 348° (NNW) 2,856 ? -18.3°
